| time (UTC) | temp C | wind direction | speed KPH | gust KPH | rain 1hr cm | rain 24hr cm | rain mn cm | humidity % | barometer mb |
| 20260503060127 | 3 | 292 | 3.2 | 3.2 | 0.00 | 0.00 | 0.00 | 96 | 1015.9 |
| 20260503055119 | 3 | 312 | 3.2 | 3.2 | 0.00 | 0.00 | 0.00 | 96 | 1016.0 |
| 20260503054614 | 3 | 310 | 3.2 | 4.8 | 0.00 | 0.00 | 0.00 | 96 | 1016.1 |
| 20260503054111 | 3 | 284 | 1.6 | 3.2 | 0.00 | 0.00 | 0.00 | 96 | 1015.9 |
| 20260503053610 | 3 | 314 | 1.6 | 3.2 | 0.00 | 0.00 | 0.00 | 96 | 1015.8 |
| 20260503053108 | 3 | 288 | 3.2 | 3.2 | 0.00 | 0.00 | 0.00 | 96 | 1016.1 |
| 20260503052604 | 3 | 297 | 1.6 | 3.2 | 0.00 | 0.00 | 0.00 | 96 | 1015.9 |
| 20260503052100 | 3 | 341 | 0.0 | 3.2 | 0.00 | 0.00 | 0.00 | 96 | 1015.8 |
| 20260503051555 | 3 | 292 | 3.2 | 3.2 | 0.00 | 0.00 | 0.00 | 96 | 1015.8 |
| 20260503051054 | 3 | 318 | 1.6 | 3.2 | 0.00 | 0.00 | 0.00 | 96 | 1015.9 |
| 20260503050549 | 3 | 313 | 3.2 | 3.2 | 0.00 | 0.00 | 0.00 | 95 | 1016.0 |
| 20260503050047 | 3 | 327 | 3.2 | 3.2 | 0.00 | 0.00 | 0.00 | 95 | 1015.9 |
| 20260503045544 | 3 | 294 | 3.2 | 3.2 | 0.00 | 0.00 | 0.00 | 96 | 1015.7 |
| 20260503045041 | 3 | 295 | 3.2 | 3.2 | 0.00 | 0.00 | 0.00 | 96 | 1015.7 |
| 20260503044538 | 3 | 273 | 1.6 | 3.2 | 0.00 | 0.00 | 0.00 | 96 | 1015.7 |
| 20260503044035 | 3 | 308 | 3.2 | 3.2 | 0.00 | 0.00 | 0.00 | 96 | 1015.5 |
| 20260503043531 | 3 | 299 | 1.6 | 3.2 | 0.00 | 0.00 | 0.00 | 96 | 1015.5 |
| 20260503043028 | 3 | 297 | 3.2 | 3.2 | 0.00 | 0.00 | 0.00 | 96 | 1015.4 |
| 20260503042525 | 3 | 326 | 1.6 | 3.2 | 0.00 | 0.00 | 0.00 | 96 | 1015.4 |
| 20260503042021 | 4 | 297 | 3.2 | 3.2 | 0.00 | 0.00 | 0.00 | 96 | 1015.5 |
| 20260503041518 | 4 | 296 | 3.2 | 3.2 | 0.00 | 0.00 | 0.00 | 96 | 1015.4 |
| 20260503041016 | 4 | 304 | 0.0 | 3.2 | 0.00 | 0.00 | 0.00 | 96 | 1015.2 |
| 20260503040513 | 4 | 280 | 3.2 | 3.2 | 0.00 | 0.00 | 0.00 | 96 | 1015.3 |
| 20260503040010 | 4 | 274 | 3.2 | 3.2 | 0.00 | 0.00 | 0.00 | 96 | 1015.3 |
| 20260503035507 | 4 | 276 | 1.6 | 3.2 | 0.00 | 0.00 | 0.00 | 96 | 1015.2 |
| 20260503035005 | 4 | 22 | 0.0 | 0.0 | 0.00 | 0.00 | 0.00 | 95 | 1015.4 |
| 20260503034501 | 5 | 325 | 0.0 | 1.6 | 0.00 | 0.00 | 0.00 | 95 | 1015.2 |
| 20260503033959 | 5 | 294 | 3.2 | 3.2 | 0.00 | 0.00 | 0.00 | 95 | 1015.2 |
| 20260503033456 | 5 | 290 | 3.2 | 3.2 | 0.00 | 0.00 | 0.00 | 95 | 1015.1 |
| 20260503032954 | 5 | 318 | 3.2 | 3.2 | 0.00 | 0.00 | 0.00 | 95 | 1015.0 |
| 20260503032452 | 5 | 304 | 3.2 | 3.2 | 0.00 | 0.00 | 0.00 | 95 | 1014.9 |
| 20260503031949 | 5 | 283 | 1.6 | 3.2 | 0.00 | 0.00 | 0.00 | 94 | 1014.8 |
| 20260503031447 | 5 | 345 | 0.0 | 1.6 | 0.00 | 0.00 | 0.00 | 94 | 1014.8 |
| 20260503030943 | 5 | 269 | 1.6 | 3.2 | 0.00 | 0.00 | 0.00 | 94 | 1014.8 |
| 20260503030440 | 5 | 297 | 1.6 | 3.2 | 0.00 | 0.00 | 0.00 | 94 | 1014.8 |
| 20260503025937 | 5 | 310 | 0.0 | 1.6 | 0.00 | 0.00 | 0.00 | 93 | 1014.9 |
| 20260503025434 | 5 | 298 | 1.6 | 3.2 | 0.00 | 0.00 | 0.00 | 93 | 1014.8 |
| 20260503024932 | 5 | 230 | 1.6 | 3.2 | 0.00 | 0.00 | 0.00 | 93 | 1014.9 |
| 20260503024428 | 5 | 235 | 0.0 | 3.2 | 0.00 | 0.00 | 0.00 | 93 | 1014.9 |
| 20260503023925 | 5 | 335 | 3.2 | 3.2 | 0.00 | 0.00 | 0.00 | 93 | 1014.7 |
| 20260503023422 | 5 | 283 | 1.6 | 3.2 | 0.00 | 0.00 | 0.00 | 92 | 1014.9 |
| 20260503022914 | 5 | 345 | 0.0 | 0.0 | 0.00 | 0.00 | 0.00 | 92 | 1014.9 |
| 20260503022413 | 6 | 260 | 4.8 | 4.8 | 0.00 | 0.00 | 0.00 | 92 | 1015.0 |
| 20260503021909 | 6 | 259 | 3.2 | 3.2 | 0.00 | 0.00 | 0.00 | 92 | 1014.7 |
| 20260503021406 | 6 | 290 | 3.2 | 4.8 | 0.00 | 0.00 | 0.00 | 92 | 1014.8 |
| 20260503020903 | 6 | 312 | 3.2 | 3.2 | 0.00 | 0.00 | 0.00 | 91 | 1014.9 |
| 20260503020401 | 6 | 287 | 3.2 | 3.2 | 0.00 | 0.00 | 0.00 | 91 | 1014.6 |
| 20260503015857 | 6 | 309 | 3.2 | 3.2 | 0.00 | 0.00 | 0.00 | 91 | 1014.7 |
| 20260503015354 | 6 | 290 | 3.2 | 3.2 | 0.00 | 0.00 | 0.00 | 91 | 1014.6 |
| 20260503014850 | 6 | 280 | 1.6 | 3.2 | 0.00 | 0.00 | 0.00 | 91 | 1014.5 |
| 20260503014349 | 6 | 264 | 3.2 | 4.8 | 0.00 | 0.00 | 0.00 | 90 | 1014.4 |
| 20260503013846 | 6 | 326 | 0.0 | 0.0 | 0.00 | 0.00 | 0.00 | 89 | 1014.0 |
| 20260503013342 | 6 | 295 | 3.2 | 3.2 | 0.00 | 0.00 | 0.00 | 90 | 1014.0 |
| 20260503012839 | 6 | 286 | 1.6 | 3.2 | 0.00 | 0.00 | 0.00 | 90 | 1014.1 |
| 20260503012337 | 6 | 315 | 0.0 | 3.2 | 0.00 | 0.00 | 0.00 | 89 | 1013.9 |
| 20260503011834 | 7 | 257 | 3.2 | 3.2 | 0.00 | 0.00 | 0.00 | 89 | 1013.9 |
| 20260503011330 | 7 | 310 | 0.0 | 3.2 | 0.00 | 0.00 | 0.00 | 89 | 1013.6 |
| 20260503010827 | 7 | 279 | 3.2 | 3.2 | 0.00 | 0.00 | 0.00 | 88 | 1013.8 |
| 20260503010324 | 7 | 286 | 1.6 | 1.6 | 0.00 | 0.00 | 0.00 | 88 | 1013.6 |
| 20260503005821 | 7 | 284 | 1.6 | 3.2 | 0.00 | 0.00 | 0.00 | 88 | 1013.5 |
| 20260503005318 | 8 | 283 | 0.0 | 1.6 | 0.00 | 0.00 | 0.00 | 86 | 1013.4 |
| 20260503004814 | 8 | 286 | 1.6 | 3.2 | 0.00 | 0.00 | 0.00 | 85 | 1013.5 |
| 20260503004312 | 8 | 238 | 1.6 | 1.6 | 0.00 | 0.00 | 0.00 | 83 | 1013.2 |
| 20260503003810 | 8 | 38 | 0.0 | 3.2 | 0.00 | 0.00 | 0.00 | 80 | 1013.3 |
| 20260503003306 | 8 | 277 | 3.2 | 4.8 | 0.00 | 0.00 | 0.00 | 78 | 1013.2 |
| 20260503002803 | 9 | 236 | 3.2 | 3.2 | 0.00 | 0.00 | 0.00 | 80 | 1013.0 |
| 20260503002300 | 9 | 85 | 3.2 | 3.2 | 0.00 | 0.00 | 0.00 | 79 | 1013.0 |
| 20260503001756 | 10 | 304 | 0.0 | 1.6 | 0.00 | 0.00 | 0.00 | 77 | 1013.0 |
| 20260503001253 | 10 | 247 | 1.6 | 1.6 | 0.00 | 0.00 | 0.00 | 76 | 1013.0 |
| 20260503000751 | 10 | 288 | 0.0 | 0.0 | 0.00 | 0.00 | 0.00 | 75 | 1013.1 |
| 20260503000248 | 10 | 252 | 0.0 | 1.6 | 0.00 | 0.00 | 0.00 | 74 | 1013.0 |
| 20260502235745 | 10 | 246 | 0.0 | 1.6 | 0.00 | 0.00 | 0.00 | 72 | 1012.8 |
| 20260502235243 | 10 | 277 | 0.0 | 1.6 | 0.00 | 0.00 | 0.00 | 72 | 1012.9 |
| 20260502234738 | 10 | 284 | 0.0 | 1.6 | 0.00 | 0.00 | 0.00 | 69 | 1012.7 |
| 20260502234236 | 11 | 10 | 0.0 | 1.6 | 0.00 | 0.00 | 0.00 | 70 | 1012.7 |
| 20260502233732 | 11 | 257 | 0.0 | 0.0 | 0.00 | 0.00 | 0.00 | 69 | 1012.7 |
| 20260502233229 | 11 | 224 | 0.0 | 0.0 | 0.00 | 0.00 | 0.00 | 69 | 1012.6 |
| 20260502232724 | 11 | 224 | 0.0 | 1.6 | 0.00 | 0.00 | 0.00 | 67 | 1012.5 |
| 20260502232222 | 12 | 322 | 0.0 | 1.6 | 0.00 | 0.00 | 0.00 | 65 | 1012.4 |
| 20260502231718 | 12 | 230 | 0.0 | 0.0 | 0.00 | 0.00 | 0.00 | 65 | 1012.5 |
| 20260502231216 | 12 | 304 | 0.0 | 0.0 | 0.00 | 0.00 | 0.00 | 60 | 1012.3 |
| 20260502230715 | 14 | 57 | 1.6 | 3.2 | 0.00 | 0.00 | 0.00 | 56 | 1012.2 |
| 20260502230213 | 15 | 304 | 0.0 | 1.6 | 0.00 | 0.00 | 0.00 | 52 | 1012.2 |
| 20260502225708 | 16 | 229 | 0.0 | 0.0 | 0.00 | 0.00 | 0.00 | 52 | 1012.1 |
| 20260502225205 | 16 | 243 | 3.2 | 3.2 | 0.00 | 0.00 | 0.00 | 48 | 1012.0 |
| 20260502224701 | 15 | 29 | 0.0 | 1.6 | 0.00 | 0.00 | 0.00 | 48 | 1012.2 |
| 20260502224159 | 15 | 42 | 1.6 | 3.2 | 0.00 | 0.00 | 0.00 | 51 | 1012.0 |
| 20260502223656 | 16 | 24 | 3.2 | 3.2 | 0.00 | 0.00 | 0.00 | 46 | 1012.0 |
| 20260502223154 | 16 | 339 | 3.2 | 4.8 | 0.00 | 0.00 | 0.00 | 45 | 1011.9 |
| 20260502222652 | 17 | 29 | 3.2 | 6.4 | 0.00 | 0.00 | 0.00 | 43 | 1012.1 |
| 20260502222148 | 17 | 336 | 3.2 | 3.2 | 0.00 | 0.00 | 0.00 | 47 | 1012.0 |
| 20260502221643 | 17 | 13 | 0.0 | 3.2 | 0.00 | 0.00 | 0.00 | 44 | 1011.9 |
| 20260502221136 | 16 | 9 | 0.0 | 4.8 | 0.00 | 0.00 | 0.00 | 43 | 1011.5 |
| 20260502220632 | 16 | 306 | 3.2 | 8.0 | 0.00 | 0.00 | 0.00 | 43 | 1011.5 |
| 20260502220128 | 16 | 262 | 4.8 | 4.8 | 0.00 | 0.00 | 0.00 | 44 | 1011.7 |
| 20260502215625 | 16 | 14 | 4.8 | 8.0 | 0.00 | 0.00 | 0.00 | 43 | 1011.7 |
| 20260502215122 | 16 | 45 | 6.4 | 8.0 | 0.00 | 0.00 | 0.00 | 43 | 1011.8 |
| 20260502214619 | 17 | 37 | 4.8 | 11.3 | 0.00 | 0.00 | 0.00 | 41 | 1011.7 |
| 20260502214116 | 17 | 2 | 1.6 | 9.7 | 0.00 | 0.00 | 0.00 | 42 | 1011.4 |
| 20260502213614 | 16 | 49 | 1.6 | 3.2 | 0.00 | 0.00 | 0.00 | 43 | 1011.5 |
| 20260502213111 | 15 | 1 | 3.2 | 4.8 | 0.00 | 0.00 | 0.00 | 43 | 1011.9 |
| 20260502212610 | 15 | 67 | 3.2 | 4.8 | 0.00 | 0.00 | 0.00 | 46 | 1011.7 |
| 20260502212108 | 16 | 127 | 0.0 | 1.6 | 0.00 | 0.00 | 0.00 | 48 | 1011.4 |
| 20260502211602 | 15 | 34 | 0.0 | 6.4 | 0.00 | 0.00 | 0.00 | 47 | 1011.5 |
| 20260502211059 | 15 | 28 | 4.8 | 4.8 | 0.00 | 0.00 | 0.00 | 46 | 1011.5 |
| 20260502210556 | 15 | 269 | 6.4 | 6.4 | 0.00 | 0.00 | 0.00 | 44 | 1011.5 |
| 20260502210054 | 15 | 15 | 3.2 | 12.9 | 0.00 | 0.00 | 0.00 | 42 | 1011.5 |
| 20260502205550 | 16 | 262 | 4.8 | 6.4 | 0.00 | 0.00 | 0.00 | 41 | 1011.5 |
| 20260502205047 | 17 | 224 | 1.6 | 4.8 | 0.00 | 0.00 | 0.00 | 41 | 1011.7 |
| 20260502204543 | 15 | 41 | 1.6 | 4.8 | 0.00 | 0.00 | 0.00 | 46 | 1011.5 |
| 20260502204041 | 15 | 32 | 4.8 | 4.8 | 0.00 | 0.00 | 0.00 | 46 | 1011.7 |
| 20260502203538 | 15 | 350 | 3.2 | 6.4 | 0.00 | 0.00 | 0.00 | 50 | 1011.7 |
| 20260502203035 | 15 | 50 | 1.6 | 4.8 | 0.00 | 0.00 | 0.00 | 44 | 1011.5 |
| 20260502202531 | 15 | 50 | 0.0 | 3.2 | 0.00 | 0.00 | 0.00 | 42 | 1011.7 |
| 20260502202030 | 15 | 133 | 4.8 | 11.3 | 0.00 | 0.00 | 0.00 | 43 | 1011.8 |
| 20260502201525 | 15 | 98 | 0.0 | 6.4 | 0.00 | 0.00 | 0.00 | 47 | 1011.7 |
| 20260502201022 | 15 | 122 | 3.2 | 4.8 | 0.00 | 0.00 | 0.00 | 47 | 1011.7 |
| 20260502200519 | 13 | 34 | 3.2 | 8.0 | 0.00 | 0.00 | 0.00 | 47 | 1011.8 |
| 20260502200017 | 15 | 19 | 8.0 | 8.0 | 0.00 | 0.00 | 0.00 | 44 | 1012.1 |
| 20260502195514 | 14 | 189 | 3.2 | 6.4 | 0.00 | 0.00 | 0.00 | 43 | 1012.2 |
| 20260502195009 | 15 | 117 | 3.2 | 6.4 | 0.00 | 0.00 | 0.00 | 44 | 1012.4 |
| 20260502194506 | 14 | 212 | 0.0 | 4.8 | 0.00 | 0.00 | 0.00 | 47 | 1012.4 |
| 20260502194002 | 15 | 44 | 0.0 | 3.2 | 0.00 | 0.00 | 0.00 | 47 | 1012.4 |
| 20260502193500 | 14 | 237 | 3.2 | 4.8 | 0.00 | 0.00 | 0.00 | 46 | 1012.6 |
| 20260502192955 | 13 | 288 | 1.6 | 8.0 | 0.00 | 0.00 | 0.00 | 43 | 1012.5 |
| 20260502192452 | 13 | 126 | 3.2 | 6.4 | 0.00 | 0.00 | 0.00 | 43 | 1012.6 |
| 20260502191949 | 14 | 78 | 8.0 | 8.0 | 0.00 | 0.00 | 0.00 | 44 | 1012.7 |
| 20260502191447 | 14 | 316 | 3.2 | 6.4 | 0.00 | 0.00 | 0.00 | 43 | 1012.8 |
| 20260502190944 | 14 | 131 | 4.8 | 6.4 | 0.00 | 0.00 | 0.00 | 41 | 1012.7 |
| 20260502190441 | 13 | 114 | 8.0 | 11.3 | 0.00 | 0.00 | 0.00 | 43 | 1012.8 |
| 20260502185937 | 13 | 33 | 11.3 | 12.9 | 0.00 | 0.00 | 0.00 | 48 | 1012.7 |
| 20260502185433 | 13 | 145 | 8.0 | 9.7 | 0.00 | 0.00 | 0.00 | 47 | 1012.7 |
| 20260502184930 | 13 | 162 | 0.0 | 4.8 | 0.00 | 0.00 | 0.00 | 48 | 1012.7 |
| 20260502184425 | 13 | 68 | 4.8 | 8.0 | 0.00 | 0.00 | 0.00 | 48 | 1012.6 |
| 20260502183922 | 13 | 24 | 4.8 | 8.0 | 0.00 | 0.00 | 0.00 | 48 | 1012.9 |
| 20260502183419 | 12 | 110 | 3.2 | 8.0 | 0.00 | 0.00 | 0.00 | 48 | 1012.8 |
| 20260502182914 | 12 | 204 | 4.8 | 17.7 | 0.00 | 0.00 | 0.00 | 49 | 1012.9 |
| 20260502182410 | 12 | 40 | 4.8 | 9.7 | 0.00 | 0.00 | 0.00 | 49 | 1012.8 |
| 20260502181906 | 12 | 88 | 3.2 | 6.4 | 0.00 | 0.00 | 0.00 | 49 | 1012.8 |
| 20260502181405 | 13 | 37 | 0.0 | 6.4 | 0.00 | 0.00 | 0.00 | 51 | 1012.9 |
| 20260502180903 | 13 | 357 | 0.0 | 4.8 | 0.00 | 0.00 | 0.00 | 49 | 1012.9 |
| 20260502180359 | 12 | 17 | 4.8 | 6.4 | 0.00 | 0.00 | 0.00 | 52 | 1012.9 |
| 20260502170318 | 12 | 41 | 3.2 | 8.0 | 0.00 | 0.00 | 0.00 | 48 | 1013.1 |
| 20260502164306 | 12 | 326 | 0.0 | 11.3 | 0.00 | 0.00 | 0.00 | 51 | 1013.9 |
| 20260502163801 | 12 | 55 | 3.2 | 16.1 | 0.00 | 0.00 | 0.00 | 50 | 1014.0 |
| 20260502163258 | 13 | 160 | 1.6 | 9.7 | 0.00 | 0.00 | 0.00 | 49 | 1013.9 |
| 20260502162755 | 12 | 80 | 3.2 | 9.7 | 0.00 | 0.00 | 0.00 | 50 | 1014.0 |
| 20260502162252 | 12 | 86 | 0.0 | 8.0 | 0.00 | 0.00 | 0.00 | 51 | 1013.9 |
| 20260502161749 | 12 | 16 | 3.2 | 19.3 | 0.00 | 0.00 | 0.00 | 50 | 1014.0 |
| 20260502161245 | 12 | 60 | 11.3 | 16.1 | 0.00 | 0.00 | 0.00 | 48 | 1014.1 |
| 20260502160743 | 12 | 129 | 6.4 | 11.3 | 0.00 | 0.00 | 0.00 | 48 | 1014.1 |
| 20260502160242 | 12 | 156 | 3.2 | 14.5 | 0.00 | 0.00 | 0.00 | 49 | 1014.3 |
| 20260502152206 | 11 | 69 | 1.6 | 8.0 | 0.00 | 0.00 | 0.00 | 55 | 1014.4 |
| 20260502151704 | 11 | 125 | 4.8 | 12.9 | 0.00 | 0.00 | 0.00 | 54 | 1014.5 |
| 20260502151201 | 11 | 98 | 0.0 | 4.8 | 0.00 | 0.00 | 0.00 | 56 | 1014.3 |
| 20260502150658 | 11 | 66 | 8.0 | 12.9 | 0.00 | 0.00 | 0.00 | 57 | 1014.2 |
| 20260502150154 | 11 | 43 | 9.7 | 14.5 | 0.00 | 0.00 | 0.00 | 57 | 1014.4 |
| 20260502140118 | 11 | 30 | 6.4 | 11.3 | 0.00 | 0.00 | 0.00 | 62 | 1014.3 |
| 20260502130543 | 11 | 52 | 3.2 | 3.2 | 0.00 | 0.00 | 0.00 | 69 | 1013.9 |
| 20260502123526 | 11 | 63 | 4.8 | 8.0 | 0.00 | 0.00 | 0.00 | 67 | 1013.1 |
| 20260502123023 | 11 | 41 | 1.6 | 6.4 | 0.00 | 0.00 | 0.00 | 69 | 1013.2 |
| 20260502122519 | 11 | 64 | 1.6 | 11.3 | 0.00 | 0.00 | 0.00 | 70 | 1013.1 |
| 20260502122017 | 11 | 123 | 6.4 | 8.0 | 0.00 | 0.00 | 0.00 | 70 | 1013.3 |
| 20260502121514 | 11 | 37 | 4.8 | 6.4 | 0.00 | 0.00 | 0.00 | 70 | 1013.5 |
| 20260502121011 | 11 | 209 | 0.0 | 4.8 | 0.00 | 0.00 | 0.00 | 72 | 1013.5 |
| 20260502120508 | 11 | 157 | 3.2 | 8.0 | 0.00 | 0.00 | 0.00 | 69 | 1013.2 |
| 20260502115502 | 11 | 21 | 4.8 | 6.4 | 0.00 | 0.00 | 0.00 | 70 | 1013.4 |
| 20260502114958 | 11 | 179 | 4.8 | 11.3 | 0.00 | 0.00 | 0.00 | 70 | 1013.3 |
| 20260502114455 | 11 | 212 | 0.0 | 8.0 | 0.00 | 0.00 | 0.00 | 72 | 1013.1 |
| 20260502113952 | 11 | 111 | 6.4 | 9.7 | 0.00 | 0.00 | 0.00 | 71 | 1012.9 |
| 20260502113449 | 11 | 41 | 4.8 | 8.0 | 0.00 | 0.00 | 0.00 | 71 | 1013.1 |
| 20260502112948 | 11 | 6 | 6.4 | 9.7 | 0.00 | 0.00 | 0.00 | 71 | 1013.0 |
| 20260502112445 | 11 | 89 | 4.8 | 4.8 | 0.00 | 0.00 | 0.00 | 71 | 1012.9 |
| 20260502111943 | 11 | 76 | 6.4 | 8.0 | 0.00 | 0.00 | 0.00 | 71 | 1013.0 |
| 20260502111440 | 11 | 34 | 3.2 | 3.2 | 0.00 | 0.00 | 0.00 | 72 | 1012.9 |
| 20260502110937 | 11 | 34 | 8.0 | 11.3 | 0.00 | 0.00 | 0.00 | 71 | 1012.9 |
| 20260502110435 | 11 | 92 | 3.2 | 6.4 | 0.00 | 0.00 | 0.00 | 72 | 1012.9 |
| 20260502105931 | 11 | 139 | 4.8 | 9.7 | 0.00 | 0.00 | 0.00 | 72 | 1012.7 |
| 20260502105429 | 11 | 75 | 3.2 | 16.1 | 0.00 | 0.00 | 0.00 | 73 | 1012.8 |
| 20260502104927 | 11 | 173 | 3.2 | 4.8 | 0.00 | 0.00 | 0.00 | 75 | 1012.7 |
| 20260502104424 | 11 | 69 | 1.6 | 11.3 | 0.00 | 0.00 | 0.00 | 75 | 1012.7 |
| 20260502103921 | 11 | 57 | 6.4 | 11.3 | 0.00 | 0.00 | 0.00 | 78 | 1012.7 |
| 20260502103419 | 11 | 130 | 0.0 | 12.9 | 0.00 | 0.00 | 0.00 | 79 | 1013.0 |
| 20260502102915 | 11 | 100 | 4.8 | 4.8 | 0.00 | 0.00 | 0.00 | 82 | 1012.7 |
| 20260502102412 | 11 | 14 | 3.2 | 3.2 | 0.00 | 0.00 | 0.00 | 82 | 1012.8 |
| 20260502101909 | 11 | 347 | 0.0 | 3.2 | 0.00 | 0.00 | 0.00 | 84 | 1012.7 |
| 20260502101408 | 10 | 359 | 0.0 | 3.2 | 0.00 | 0.00 | 0.00 | 89 | 1012.9 |
| 20260502100906 | 10 | 173 | 0.0 | 3.2 | 0.00 | 0.00 | 0.00 | 91 | 1013.0 |
| 20260502100405 | 10 | 71 | 0.0 | 3.2 | 0.00 | 0.00 | 0.00 | 94 | 1012.9 |
| 20260502091338 | 10 | 293 | 0.0 | 0.0 | 0.00 | 0.00 | 0.00 | 98 | 1013.4 |
| 20260502090836 | 10 | 293 | 0.0 | 0.0 | 0.00 | 0.00 | 0.00 | 98 | 1013.4 |
| 20260502090332 | 10 | 269 | 0.0 | 3.2 | 0.00 | 0.00 | 0.00 | 98 | 1013.2 |
| 20260502071228 | 10 | 11 | 0.0 | 0.0 | 0.00 | 0.00 | 0.00 | 96 | 1012.2 |
| 20260502070726 | 10 | 29 | 3.2 | 3.2 | 0.00 | 0.00 | 0.00 | 95 | 1012.2 |
| 20260502070223 | 10 | 25 | 0.0 | 1.6 | 0.00 | 0.00 | 0.00 | 95 | 1012.2 |
| 20260502065721 | 10 | 87 | 0.0 | 1.6 | 0.00 | 0.00 | 0.00 | 95 | 1012.2 |
| 20260502065219 | 10 | 282 | 0.0 | 1.6 | 0.00 | 0.00 | 0.00 | 94 | 1012.2 |
| 20260502064717 | 10 | 197 | 0.0 | 3.2 | 0.00 | 0.00 | 0.00 | 94 | 1012.0 |
| 20260502064215 | 10 | 119 | 0.0 | 1.6 | 0.00 | 0.00 | 0.00 | 95 | 1012.3 |
| 20260502063712 | 10 | 254 | 3.2 | 9.7 | 0.00 | 0.00 | 0.00 | 95 | 1012.4 |